TELKOM 3S (41944 NORAD) Tracking and Keplerian Element Data

This shows tracking and keplerian element data for the satellite.

Feedback or suggestion? Click here.




ElementValue
Catalog41944
NameTELKOM 3S
Epoch Orbit2050
Epoch Day269.85952056
Epoch Year2022
RAAN116.3729
Inclination0.0176
Eccentricity0.0002146
Argument of Perigee69.4767
Mean Anonmoly247.2351
Mean Motion1.00271396
Decay Rate-3.6E-06
L11 41944U 17007A 22269.85952056 -.00000360 00000+0 00000+0 0 9996
L22 41944 0.0176 116.3729 0002146 69.4767 247.2351 1.00271396 20509

Live tracking and technical data element details for TELKOM 3S (NORAD 41944). TELKOM 3S can be tracked NOW for your location showing map with azimuth and elevation plus other details from your city location.

Track the satellite on the map from your city or location and see movement details for azimuth, elevation, latitude, longitude, range, height, and movement on the map or in text.







IsCatalogInMostPopularTable: catalog: 41944, numindb: 603
Update: records affected: 1



GetName: 41944 TELKOM 3S

Hit Count: updated at: Wed, 28 Sep 2022 21:22:08 GMT